Location: Grange Rosano
(44.4500°N, 6.9667°E)
Time: 21:17:58
(UTC+00:00)

COSMOS 2455 - Pass Details

Date: 26 May 2022
Orbit: 901 x 908 km, 67.1° (Epoch: 01 July)

Event Time Altitude Azimuth Distance (km) Brightness Sun altitude
Exits shadow 02:04:50 23° 208° (SSW) 1,840 3.8 -15.4°
Maximum altitude 02:08:48 88° 123° (ESE) 914 2.8 -15.0°
Drops below altitude 10° 02:14:52 10° 32° (NNE) 2,600 6.6 -14.3°
Sets 02:17:23 0° 32° (NNE) 3,545 7.8 -14.0°
